Freeport/Grand Bahama International

Airport
ICAO code: 
MYGF
IATA Code: 
FPO
Summary
ICAO Region: 
CARSAM
Territory: 
Location: 
Freeport, Grand Bahama
Serving: 
Grand Bahama
Elevation: 
8 ft
Coordinates: 
Aerial View: 
26° 33' 19.008" N, 78° 41' 53.988" W
Airport WX: 
Tropical Revolving Storm
Metar
Observation
MYGF 251800Z 10013KT 9999 SCT022TCU 30/21 A3011 TCU SCT ALQDS
Station
Freeport, Grand Bahama
Date/Time
2022-05-25 18:00:00
Wind direction
100°
Wind speed
13 kts
Lowest cloud amount
scattered clouds
Temperature
30°C
Dew point
21°C
Humidity
58%
Weather condition
n/a

Grand Bahama International Airport is a privately owned international airport in Freeport, Bahamas.

Climatology

Tropical Monsoon climate (Köppen climate classification Am)

Runways

Designator Length Width Surface Rops
6/24 3359 46 ASP Yes/Yes
Airport map: 
Aerial View: 

SKYbrary Partners:

Safety knowledge contributed by: